Regional Weather Roundup
Issued by NWS

Home | Current Version | Previous Version | Graphics & Text | Print | Product List | Glossary On
Versions: 1 2 3 4 5 6 7 8 9 10 11 12 13 14 15 16 17 18 19 20 21 22 23 24 25 26 27 28 29 30 31 32 33 34 35 36 37 38 39 40 41 42 43 44 45 46 47 48 49 50
000
ASUS43 KOAX 011110
RWRNE

WEATHER ROUNDUP FOR NEBRASKA
NATIONAL WEATHER SERVICE OMAHA NE
600 AM CDT WED JUL 01 2015

NOTES: SATELLITE DATA IS BEING USED TO AUGMENT CLOUD COVER ABOVE
       12000 FEET.
       "FAIR" INDICATES FEW OR NO CLOUDS BELOW 12,000 FEET WITH NO
       SIGNIFICANT WEATHER AND/OR OBSTRUCTIONS TO VISIBILITY.

  * THESE STATIONS DO NOT REPORT WEATHER SUCH AS RAIN...SNOW OR FOG.

NEZ001>004-019>022-054>056-011200-
NEBRASKA PANHANDLE

CITY           SKY/WX    TMP DP  RH WIND       PRES   REMARKS
SCOTTSBLUFF    CLEAR     61  58  90 N6        30.01R
ALLIANCE       PTCLDY    61  60  97 NW5       29.98F
CHADRON        CLEAR     64  61  90 N6        29.95R
KIMBALL          N/A    N/A N/A N/A MISG        N/A
SIDNEY         CLEAR     61  58  90 NW10      30.03R
$$

NEZ057>060-069>072-079>082-011200-
SOUTHWEST NEBRASKA

CITY           SKY/WX    TMP DP  RH WIND       PRES   REMARKS
NORTH PLATTE   CLEAR     62  59  90 N8        29.87R
IMPERIAL       PTCLDY    72  59  63 N17       29.89R
LEXINGTON      CLEAR     63  62  95 N7        29.83R FOG
MCCOOK         CLOUDY    71  63  75 MISG      29.82R
OGALLALA       CLEAR     68  66  94 CALM      29.93R
$$

NEZ005>010-023>029-035>040-094-011200-
NORTH CENTRAL NEBRASKA

CITY           SKY/WX    TMP DP  RH WIND       PRES   REMARKS
VALENTINE      CLEAR     59  58  96 SW3       29.89R
AINSWORTH      CLEAR     59  59  99 CALM      29.89R FOG
BROKEN BOW     PTCLDY    62  60  93 N6        29.85R FOG
O`NEILL          N/A     62  61  98 E5        29.87F FOG
ORD            CLEAR     60  58  92 NW8       29.83R
THEDFORD       CLEAR     60  59  97 NW3       29.92R FOG
$$

NEZ041-046>049-061>064-073>077-083>087-011200-
SOUTH CENTRAL NEBRASKA

CITY           SKY/WX    TMP DP  RH WIND       PRES   REMARKS
GRAND ISLAND   CLEAR     67  62  84 SE7       29.81R
AURORA         PTCLDY    66  65  94 SE8       29.79F
HASTINGS       CLEAR     67  63  87 E9        29.78S
HEBRON         PTCLDY    69  62  78 SE10      29.78S
HOLDREGE       CLEAR     64  62  94 NW3       29.81R FOG
KEARNEY *      CLEAR     63  61  94 NE6       29.80R
YORK           CLEAR     66  64  94 SE6       29.80S
$$

NEZ011>018-030>034-042>045-011200-
NORTHEAST NEBRASKA

CITY           SKY/WX    TMP DP  RH WIND       PRES   REMARKS
NORFOLK        PTCLDY    64  63  96 E6        29.83S FOG
ALBION         PTCLDY    63  60  91 E3        29.83S FOG
BLAIR          PTCLDY    66  64  92 E7        29.82F
COLUMBUS *     CLEAR     64  59  82 E5        29.82S
FREMONT        PTCLDY    67  65  93 E6        29.83S FOG
TEKAMAH        MOCLDY    67  65  93 E6        29.82F FOG
WAYNE          MOCLDY    64  63  97 CALM      29.86R FOG
$$

NEZ050>053-065>068-078-088>093-011200-
SOUTHEAST NEBRASKA

CITY           SKY/WX    TMP DP  RH WIND       PRES   REMARKS
LINCOLN        MOCLDY    67  65  93 E6        29.81R FOG
OMAHA EPPLEY   MOCLDY    68  65  90 SE12      29.82F
BEATRICE       CLOUDY    68  65  92 SE14      29.78F
FALLS CITY     LGT RAIN  69  66  90 SE10      29.81S
NEBRASKA CITY  CLOUDY    67  66  97 E5        29.80F
PLATTSMOUTH    MOCLDY    67  64  92 E7        29.82S
$$

NEZ044-045-051>053-067-011200-
OMAHA AREA

CITY           SKY/WX    TMP DP  RH WIND       PRES   REMARKS
OMAHA EPPLEY   MOCLDY    68  65  90 SE12      29.82F
BLAIR          PTCLDY    66  64  92 E7        29.82F
FREMONT        PTCLDY    67  65  93 E6        29.83S FOG
MILLARD        MOCLDY    67  65  93 SE3       29.82S
OFFUTT AFB     MOCLDY    68  65  93 E6        29.81S
PLATTSMOUTH    MOCLDY    67  64  92 E7        29.82S
WAHOO          PTSUNNY   67  65  94 E3        29.82S
$$



USA.gov is the U.S. government's official web portal to all federal, state and local government web resources and services.